Back to catalog

FENGYUN 1C DEB

AliveSSO
NORAD 30714·DEBRIS·🇨🇳 China

Launched May 10, 1999 from Taiyuan Satellite Launch Center

Loading…

Next Passes (next 24 hours)

TLE

FreshSource: Space-Track

Epoch: Sep 14, 2026, 14:19 UTC

1 30714U 99025ARY 26257.59669649  .00000427  00000-0  29319-3 0  9996
2 30714  98.8079 302.8691 0065601 232.8764 281.4749 14.03739556998629

Track FENGYUN 1C DEB in real time with AllMySat

Download on the App Store